Location: *
(37.5724°S, 58.0067°E)
Time: 09:20:52
(UTC+00:00)

Genesis I - Visible Passes

Search period start: 17 January 2021 00:00
Search period end: 27 January 2021 00:00
Orbit: 494 x 527 km, 64.5° (Epoch: 16 January)

Date Brightness Start Highest point End Pass type
(mag) Time Alt. Az. Time Alt. Az. Time Alt. Az.
17 Jan 5.5 22:03:02 17° E 22:03:02 17° E 22:04:59 10° ESE visible
17 Jan 4.2 23:37:55 24° W 23:39:34 34° SW 23:43:13 10° SSE visible
18 Jan 5.8 21:46:16 15° E 21:46:16 15° E 21:47:32 10° ESE visible
18 Jan 4.2 23:21:09 30° W 23:22:08 35° SW 23:25:49 10° SSE visible
19 Jan 6.0 21:29:26 13° ESE 21:29:26 13° ESE 21:30:06 10° ESE visible
19 Jan 4.1 23:04:19 34° WSW 23:04:43 35° SW 23:08:24 10° SSE visible
20 Jan 6.2 21:12:34 10° ESE 21:12:34 10° ESE 21:12:39 10° ESE visible
20 Jan 4.2 22:47:26 36° SW 22:47:26 36° SW 22:50:59 10° SSE visible
21 Jan 4.5 22:30:31 34° SSW 22:30:31 34° SSW 22:33:34 10° SSE visible
22 Jan 4.8 22:13:33 30° SSW 22:13:33 30° SSW 22:16:09 10° SSE visible
23 Jan 5.2 21:56:33 26° S 21:56:33 26° S 21:58:44 10° SSE visible
24 Jan 5.5 21:39:30 23° S 21:39:30 23° S 21:41:19 10° SSE visible
25 Jan 5.8 21:22:25 20° S 21:22:25 20° S 21:23:54 10° SSE visible
26 Jan 6.0 21:05:18 18° S 21:05:18 18° S 21:06:28 10° SSE visible
